Regional Weather Roundup
Issued by NWS Newport/Morehead, NC

Current Version | Previous Version | Graphics & Text | Print | Product List | Glossary Off
Versions: 1 2 3 4 5 6 7 8 9 10 11 12 13 14 15 16 17 18 19 20 21 22 23 24 25 26 27 28 29 30 31 32 33 34 35 36 37 38 39 40 41 42 43 44 45 46 47 48 49 50

000
ASUS42 KMHX 210310
RWRMHX
WEATHER ROUNDUP FOR EASTERN NORTH CAROLINA
NATIONAL WEATHER SERVICE NEWPORT/MOREHEAD CITY NC
1100 PM EDT MON OCT 20 2014

NOTE: "FAIR" INDICATES FEW OR NO CLOUDS BELOW 12,000 FEET
WITH NO SIGNIFICANT WEATHER AND/OR OBSTRUCTIONS TO VISIBILITY

NCZ015>017-031-032-045>047-102-103-210400-
NORTH COAST

CITY           SKY/WX    TMP DP  RH WIND       PRES   REMARKS
EDENTON        PTCLDY    62  57  85 S6        30.00F
ELIZABETH CITY PTCLDY    60  54  80 S5        30.01F
KITTY HAWK     PTCLDY    63  58  86 S3        30.00F
MANTEO         MOCLDY    61  57  88 CALM      30.02F

$$

NCZ045>047-081-094-103-104-210400-
CENTRAL COAST

CITY           SKY/WX    TMP DP  RH WIND       PRES   REMARKS
FRISCO         MOCLDY    71  57  61 S10       30.02F
SWANQUARTER      N/A     63 N/A N/A CALM      29.97S

$$

NCZ095-097-098-100-101-210400-
SOUTHERN COAST

CITY           SKY/WX    TMP DP  RH WIND       PRES   REMARKS
BEAUFORT       PTCLDY    70  61  73 S6        30.00F
CEDAR ISLAND     N/A     68 N/A N/A S7        30.06S
JACKSONVILLE   PTCLDY    59  57  93 CALM      30.00F
PINEY ISLAND   MOCLDY    66  58  75 SE5       30.00F
WILMINGTON     PTCLDY    58  56  93 CALM      30.00F


$$

NCZ011>013-027>030-043-044-078>080-089-090>093-098-210400-
COASTAL PLAIN

CITY           SKY/WX    TMP DP  RH WIND       PRES   REMARKS
AHOSKIE          N/A     50  49  95 CALM      30.00F
CLINTON        PTCLDY    58  57  96 CALM      30.01S
ELIZABETHTOWN  CLEAR     59  57  91 CALM      30.01S
GOLDSBORO      PTCLDY    60  59  98 SE2       29.99S
GREENVILLE     MOCLDY    59  54  82 CALM      30.02F
HAVELOCK       MOCLDY    60  56  86 CALM      30.02F
KENANSVILLE    CLEAR     56  55  94 CALM      30.01F
KINSTON        PTCLDY    58  56  92 S3        30.01S
NEW BERN       MOCLDY    59  55  87 CALM      30.02F
RICHLANDS      PTCLDY    55  52  88 CALM      30.01F
ROCKY MOUNT    PTCLDY    53  51  93 CALM      30.00S
WASHINGTON     MOCLDY    61  55  82 CALM      30.01F
WHITEVILLE     PTCLDY    57  55  93 CALM      30.00F

$$

AMZ130-135-150-152-154-156-158-170-250-252-270-ANZ085-086-088-633-658-670-210400-
MARINE OBSERVATIONS

STATION/POSITION TIME  TEMP    WIND        PRES    WAVE   SWELL
                       AIR SEA DIR/SP/G            HT/PER HT/PER
                 (UTC) (F)     (DEG/KT/KT) (MB)    (FT/S) (FT/S)
CHESAPEAKE LIGHT 0200   66     200/ 19/ 20 1016.3
64 E VA BEACH    0300   71 69  220/ 17/ 21 1015.7    4/ 5   2/11
DUCK             NOT AVBL
2 E DUCK         0300                        N/A     2/13   2/13
10 NE DUCK       0200      71                N/A     3/11   2/11
OREGON INLET     NOT AVBL
13E OREGON INLT  0300      73                N/A     3/12   2/12
HATTERAS CG      NOT AVBL
DIAMOND BUOY     0300   72     180/ 16/ 19 1016.9    4/ 9   3/ 9
17 S OCRACOKE    0200          VRB 10/ 14  1016.9
CAPE LOOKOUT     0200   73     170/ 10/ 11 1016.4
BEAUFORT LAB     NOT AVBL
30 SE NEW RIVER  0300   75 76  190/ 17/ 21 1015.1    2/ 8   2/ 8
5 SE WRIGHTSVLE  0300   67 73  310/  8/ 10   N/A
225 S CAPE HAT   0248   75 80  150/ 14/ 16 1017.9    4/ 9   3/ 9
41 SE CHARLESTON 0300   76 80  270/  4/  6 1016.0    2/ 9   2/ 9

$$


USA.gov is the U.S. government's official web portal to all federal, state and local government web resources and services.